Tracking 26303 objects as of 1-Dec-2022
HD Live streaming from Space Station
objects crossing your sky now

COSMOS 1408 DEB

Track COSMOS 1408 DEB now!
10-day predictions


NORAD ID: 51267
Int'l Code: 1982-092BCV
Perigee: 419.9 km
Apogee: 500.8 km
Inclination: 82.5 °
Period: 93.7 minutes
Semi major axis: 6831 km
RCS: Unknown
Launch date: September 16, 1982
Source: Commonwealth of Independent States (former USSR) (CIS)
Launch site: PLESETSK MISSILE AND SPACE COMPLEX (PKMTR)

Note: This is SATELLITE DEBRIS
aabbcc
Your satellite tracking list
Your tracking list is empty




NASA's NSSDC Master Catalog

Two Line Element Set (TLE):
1 51267U 82092BCV 22334.65601975  .00084012  00000-0  21264-2 0  9997
2 51267  82.5168 106.5559 0059197 151.4861 208.9645 15.37598714 52248
Source of the keplerian elements: AFSPC